Regional Weather Roundup
Issued by NWS

Home | Current Version | Previous Version | Graphics & Text | Print | Product List | Glossary On
Versions: 1 2 3 4 5 6 7 8 9 10 11 12 13 14 15 16 17 18 19 20 21 22 23 24 25 26 27 28 29 30 31 32 33 34 35 36 37 38 39 40 41 42 43 44 45 46 47
000
ASUS43 KDMX 141907
RWRIA

WEATHER ROUNDUP FOR IOWA
NATIONAL WEATHER SERVICE DES MOINES IA
200 PM CDT SUN SEP 14 2014

NOTE: "FAIR" INDICATES FEW OR NO CLOUDS BELOW 12,000 FEET WITH NO
SIGNIFICANT WEATHER AND/OR OBSTRUCTIONS TO VISIBILITY.

* - THESE STATIONS ARE NOT NWS STATIONS...THUS NOT UNDER NWS
QUALITY CONTROL.  THEY ALSO DO NOT REPORT WEATHER SUCH
AS PRECIPITATION OR FOG.

IAZ001>003-012>014-020>022-031>034-043>046-142000-
   NORTHWEST IOWA

CITY           SKY/WX    TMP DP  RH WIND       PRES   REMARKS
CARROLL *      MOSUNNY   68  48  49 SW6G16    30.17S
CHEROKEE *     MOSUNNY   64  50  59 SW8       30.16F
DENISON *      SUNNY     66  48  52 SW8       30.15F
LE MARS *      SUNNY     63  52  67 SW8       30.16F
ORANGE CITY *  SUNNY     61  48  63 CALM      30.15F
SHELDON *      PTSUNNY   59  50  72 S5        30.15F
SIOUX CITY     MOSUNNY   67  49  52 CALM      30.15F
SPENCER        CLOUDY    59  49  69 SW8       30.17S
STORM LAKE *   SUNNY     64  54  68 W8        30.16F
$$

IAZ055>058-069>071-079>083-090>094-142000-
   SOUTHWEST IOWA

CITY           SKY/WX    TMP DP  RH WIND       PRES   REMARKS
ATLANTIC *     MOSUNNY   68  50  52 S10       30.16F
AUDUBON *      SUNNY     70  54  56 S8        30.18F
CLARINDA *     SUNNY     70  50  49 S9        30.19F
COUNCIL BLFS * MOSUNNY   68  52  56 S9        30.15F
CRESTON *      SUNNY     66  50  55 SW10G16   30.20F
HARLAN  *      MOSUNNY   68  50  52 SW10G16   30.19F
LAMONI         SUNNY     67  48  50 VRB7      30.21F
SHENANDOAH *   SUNNY     70  50  49 VRB7G14   30.17F
$$

IAZ047>049-059>061-072>074-084-142000-
   CENTRAL IOWA

CITY           SKY/WX    TMP DP  RH WIND       PRES   REMARKS
AMES           MOSUNNY   68  48  48 SW6       30.17F
ANKENY *       SUNNY     68  48  49 SW9G16    30.18F
CHARITON *     SUNNY     68  48  49 VRB7G14   30.21F
DES MOINES     MOSUNNY   68  48  48 SW10      30.19F
GRINNELL*      SUNNY     66  48  52 SW7       30.21S
KNOXVILLE *    SUNNY     66  46  48 SW9       30.19F
MARSHALLTOWN   MOSUNNY   66  49  54 SW10      30.18F
PELLA *        MOSUNNY   70  48  46 SW7       30.22F
PERRY *          N/A     70  50  49 W6G16     30.18F
$$

IAZ004>006-015-016-023>025-035-036-142000-
   NORTH CENTRAL IOWA

CITY           SKY/WX    TMP DP  RH WIND       PRES   REMARKS
ALGONA *       SUNNY     64  50  59 SW13      30.16F
CLARION *        N/A     66  46  48 SW13      30.16F
ESTHERVILLE    CLOUDY    64  48  56 W9        30.15F
FORT DODGE *   PTSUNNY   66  50  55 SW8       30.18S
MASON CITY     MOSUNNY   67  49  52 W15       30.16F
FOREST CITY *  SUNNY     66  50  55 SW8G18    30.14F
IOWA FALLS *     N/A     66  46  48 S10       30.17F
$$

IAZ007>011-017>019-026>030-037>042-050>054-066-142000-
   NORTHEAST IOWA

CITY           SKY/WX    TMP DP  RH WIND       PRES   REMARKS
CEDAR RAPIDS   SUNNY     65  48  54 S7        30.21F
CHARLES CITY * SUNNY     68  48  49 SW15      30.16F
CLINTON *      SUNNY     64  45  48 SW6       30.25F
DECORAH *      SUNNY     66  48  52 SW12G17   30.14F
DUBUQUE        SUNNY     63  46  54 SW14      30.21F
MONTICELLO *   SUNNY     64  48  55 SW8G15    30.21F
OELWEIN *      SUNNY     66  46  48 SW15G24   30.18F
WATERLOO       SUNNY     67  47  48 SW13      30.17F
$$

IAZ064-065-067-068-078-142000-
   EAST CENTRAL IOWA

CITY           SKY/WX    TMP DP  RH WIND       PRES   REMARKS
DAVENPORT      SUNNY     65  44  46 SW12      30.24F
IOWA CITY      SUNNY     66  48  52 SW9       30.23F
MT. PLEASANT * SUNNY     68  39  34 S3        30.23F
MUSCATINE *    SUNNY     66  43  42 SW10      30.22F
QUAD CITIES    SUNNY     65  45  48 VRB3      30.23F
$$

IAZ062-063-075>077-085>089-095>099-142000-
   SOUTHEAST IOWA

CITY           SKY/WX    TMP DP  RH WIND       PRES   REMARKS
BURLINGTON     SUNNY     65  45  48 S10       30.23F
FAIRFIELD *    SUNNY     66  43  42 VRB6G12   30.23F
FORT MADISON * SUNNY     68  43  40 SW5       30.24F
KEOKUK *       SUNNY     64  45  48 S7        30.22F
OSKALOOSA *      N/A     66  48  52 SW7       30.21F
CENTERVILLE *  SUNNY     66  48  52 S7        30.23F
OTTUMWA        SUNNY     66  46  48 VRB5      30.21F
WASHINGTON *   SUNNY     66  46  48 SW12      30.23F
$$

ABBREVIATIONS USED IN REMARKS
   TC - TEMPERATURES IN CELSIUS
  WCI - WIND CHILL INDEX
   HX - HEAT INDEX
  VSB - VISIBILITY
$$




USA.gov is the U.S. government's official web portal to all federal, state and local government web resources and services.